Location: Dover
(48.8500°N, 53.9833°W)
Time: 17:53:30
(UTC+00:00)

Cosmos 1459 Rocket - Pass Details

Date: 14 November 2025
Orbit: 936 x 998 km, 83.0° (Epoch: 10 December)

Event Time Altitude Azimuth Distance (km) Brightness Sun altitude
Rises 20:32:21 0° 190° (S) 3,661 7.5 -6.2°
Reaches altitude 10° 20:34:50 10° 191° (SSW) 2,726 6.8 -6.6°
Maximum altitude 20:41:07 81° 279° (W) 1,008 4.2 -7.6°
Drops below altitude 10° 20:47:31 10° 8° (N) 2,774 6.1 -8.6°
Sets 20:50:04 0° 9° (N) 3,730 6.8 -9.0°
